Starlink 4040

operational
NORAD ID: 53151 Int'l Des: 2022-083 Owner: SPXS Country: US Constellation: starlink
LEOCIRCULAR

Über Starlink 4040

Beschreibung wird geladen...

Live-Position

3D-Globus wird geladen...

Nächste Überflüge

Höhenverlauf

Altitude vs Time

uPlot chart will show altitude changes over time

Zweizeiliger Elementsatz

1 53151U 22083V 26037.13794728 .00000766 00000-0 66227-4 0 9995
2 53151 53.2167 305.7622 0001339 92.7249 267.3896 15.08844568196595
Epoch: 6. Feb. 2026 • Age: 7 hours

Aktueller Status

Höhe 553.2 km
Geschwindigkeit 7.58 km/s
Subsatellitenpunkt -39.09°S, 135.42°W
Startdatum 17. Juli 2022
Alter 3.5 years
Typ internet

Technische Details

Klassifizierung Payload
Masse 297.00 kg
Trockenmasse 275.00 kg
Gesamtmasse 297.00 kg
Länge 0.20 m
Durchmesser 2.80 m
Spannweite 9.00 m
Form Box + pan
Hersteller SPXS
Bus-Typ Starlink
Phasenstatus In Orbit
Besitzer/Staat SPXS/US

Große Konstellationen

Loading constellations...